[ hide orbit diagram ]
For accurate long-term ephemerides, please instead use our Horizons system.This orbit viewer was implemented using two-body methods, and hence should not be used for determining accurate long-term trajectories (over several years or decades) or planetary encounter circumstances.
Orbital Elements at Epoch 2459000.5 (2020-May-31.0) TDB
Reference: JPL 12 (heliocentric ecliptic J2000)
Element | Value | Uncertainty (1-sigma) | Units |
e | .1701470371651531 | 4.8277e-08 | |
a | 2.412909931286469 | 1.9173e-08 | au |
q | 2.002360455531703 | 1.1523e-07 | au |
i | 2.290646728718956 | 6.5166e-06 | deg |
node | 113.9101095246305 | 0.0001433 | deg |
peri | 161.296100936466 | 0.00014483 | deg |
M | 228.7938321725736 | 2.249e-05 | deg |
tp | 2459499.455533783211 (2021-Oct-11.95553378) | 8.8304e-05 | TDB |
period | 1369.02094723331 3.75 | 1.6317e-05 4.467e-08 | d yr |
n | .2629616447633861 | 3.1343e-09 | deg/d |
Q | 2.823459407041236 | 2.2435e-08 | au |
|
| | Orbit Determination Parameters
Additional Information
|
[ show covariance matrix ]
Physical Parameter Table
Parameter |
Symbol |
Value |
Units |
Sigma |
Reference |
Notes |
absolute magnitude |
H |
17.3 |
|
n/a |
MPO455274 |
|
|
308731 (2006 HO48) Discovered 2006-Apr-24 by Spacewatch at Kitt Peak |
Reference: 20111210/Numbers.arc | Last Updated: 2011-12-12 |
|
[ show close-approach data ]
|